Cocoa Beach, FL

10:28 AM EDT on June 24, 2017 (GMT -0400)
Patrick Air Force Base

Weather History for KCOF - October, 2012

Change the Weather History Date:

Sunday, October 7, 2012

  Actual Average Record
Temperature  
Mean Temperature 79 °F -  
Max Temperature 85 °F 81 °F 88 °F (2013)
Min Temperature 74 °F 73 °F 65 °F (2010)
Cooling Degree Days 14    
Growing Degree Days 29 (Base 50)    
Moisture  
Dew Point 74 °F    
Average Humidity 82    
Maximum Humidity 92    
Minimum Humidity 70    
Precipitation  
Precipitation 0.00 in - - ()
Sea Level Pressure  
Sea Level Pressure 29.97 in    
Wind  
Wind Speed 6 mph (ENE)    
Max Wind Speed 9 mph    
Max Gust Speed -    
Visibility 10 miles    
Events      
Averages and records for this station are not official NWS values.
T = Trace of Precipitation, MM = Missing Value Source: NWS Daily Summary

Daily Weather History Graph

Daily Weather History Graph

Search for Another Location

Airport or City:

Trip Planner

Search our weather history database for the weather conditions in past years. The results will help you decide how hot, cold, wet, or windy it might be!

Date:

Astronomy

Oct. 07, 2012 Rise Set
Actual Time 7:18 AM EDT 7:01 PM EDT
Civil Twilight 6:55 AM EDT 7:24 PM EDT
Nautical Twilight 6:27 AM EDT 7:51 PM EDT
Astronomical Twilight 6:00 AM EDT 8:19 PM EDT
Moon No Moon Rise 1:34 PM EDT (10/7)
Length of Visible Light 12h 29m
Length of Day
11h 42m
Waning Gibbous, 56% of the Moon is Illuminated
Oct 7
Waning Gibbous
Oct 8
Last Quarter
Oct 15
New
Oct 21
First Quarter
Oct 29
Full

Hourly Weather History & Observations

Time (EDT) Temp. Heat Index Dew Point Humidity Pressure Visibility Wind Dir Wind Speed Gust Speed Precip Events Conditions
12:55 AM 76.3 °F - 73.9 °F 92% 29.96 in 10.0 mi SSW 4.6 mph - N/A   Clear
1:55 AM 76.1 °F - 73.6 °F 92% 29.95 in 10.0 mi WSW 4.6 mph - N/A   Clear
2:55 AM 75.7 °F - 73.2 °F 92% 29.95 in 10.0 mi West 8.1 mph - N/A   Clear
3:55 AM 75.2 °F - 72.5 °F 91% 29.93 in 10.0 mi WSW 5.8 mph - N/A   Clear
4:55 AM 74.8 °F - 72.1 °F 91% 29.93 in 10.0 mi West 5.8 mph - N/A   Clear
5:55 AM 75.0 °F - 72.0 °F 90% 29.95 in 10.0 mi NW 5.8 mph - N/A   Clear
6:55 AM 75.6 °F - 72.0 °F 89% 29.96 in 10.0 mi NNW 5.8 mph - N/A   Clear
7:55 AM 75.6 °F - 72.9 °F 91% 29.96 in 10.0 mi North 4.6 mph - N/A   Clear
8:55 AM 78.4 °F - 74.1 °F 87% 29.98 in 10.0 mi North 5.8 mph - N/A   Clear
9:55 AM 81.5 °F 88.0 °F 75.6 °F 82% 29.99 in 10.0 mi NNE 9.2 mph - N/A   Clear
10:55 AM 82.4 °F 90.3 °F 76.3 °F 82% 30.00 in 10.0 mi NNE 8.1 mph - N/A   Clear
11:55 AM 82.8 °F 90.4 °F 75.7 °F 79% 30.00 in 10.0 mi NE 8.1 mph - N/A   Clear
12:55 PM 83.8 °F 92.1 °F 75.7 °F 76% 29.99 in 10.0 mi ENE 8.1 mph - N/A   Partly Cloudy
1:55 PM 83.3 °F 89.3 °F 73.0 °F 71% 29.99 in 10.0 mi East 8.1 mph - N/A   Clear
2:44 PM 84.2 °F 90.9 °F 73.4 °F 70% 29.96 in 10.0 mi ENE 8.1 mph - N/A   Light Drizzle
2:55 PM 84.6 °F 91.7 °F 73.8 °F 70% 29.96 in 10.0 mi ENE 6.9 mph - 0.00 in   Clear
3:55 PM 83.1 °F 90.1 °F 74.3 °F 75% 29.94 in 10.0 mi East 9.2 mph - N/A   Clear
4:55 PM 84.2 °F 91.9 °F 74.7 °F 73% 29.94 in 10.0 mi East 9.2 mph - N/A   Clear
5:55 PM 82.2 °F 88.3 °F 74.1 °F 76% 29.95 in 10.0 mi ESE 9.2 mph - N/A   Partly Cloudy
6:55 PM 81.7 °F 86.7 °F 72.9 °F 74% 29.95 in 10.0 mi SE 8.1 mph - N/A   Clear
7:55 PM 81.1 °F 86.6 °F 73.9 °F 79% 29.98 in 10.0 mi ESE 6.9 mph - N/A   Clear
8:55 PM 81.1 °F 86.6 °F 74.1 °F 79% 29.99 in 10.0 mi SE 8.1 mph - N/A   Clear
9:55 PM 81.3 °F 86.3 °F 73.2 °F 76% 30.00 in 10.0 mi SSE 8.1 mph - N/A   Mostly Cloudy
10:55 PM 81.0 °F 86.3 °F 74.1 °F 80% 29.99 in 10.0 mi SSE 6.9 mph - N/A   Partly Cloudy
11:55 PM 80.1 °F 85.1 °F 75.0 °F 85% 30.00 in 10.0 mi WSW 3.5 mph - N/A   Partly Cloudy